Weather History for Milford, UT

Change the Weather History Date:

Tuesday, August 28, 2012

  Actual Average Record
Temperature  
Mean Temperature 76 °F -  
Max Temperature 96 °F 86 °F 96 °F (2001)
Min Temperature 55 °F 51 °F 39 °F (2004)
Cooling Degree Days 10    
Growing Degree Days 26 (Base 50)    
Moisture  
Dew Point 45 °F    
Average Humidity 33    
Maximum Humidity 62    
Minimum Humidity 12    
Precipitation  
Precipitation 0.00 in - - ()
Sea Level Pressure  
Sea Level Pressure 29.96 in    
Wind  
Wind Speed 9 mph (SSW)    
Max Wind Speed 26 mph    
Max Gust Speed 34 mph    
Visibility 10 miles    
Events      
Averages and records for this station are not official NWS values.
T = Trace of Precipitation, MM = Missing Value Source: NWS Daily Summary

Daily Weather History Graph

Daily Weather History Graph

Search for Another Location

Airport:

Trip Planner

Search our weather history database for the weather conditions in past years. The results will help you decide how hot, cold, wet, or windy it might be!

Date:

Astronomy

Aug. 28, 2012 Rise Set
Actual Time 6:58 AM MDT 8:07 PM MDT
Civil Twilight 6:31 AM MDT 8:34 PM MDT
Nautical Twilight 5:58 AM MDT 9:06 PM MDT
Astronomical Twilight 5:24 AM MDT 9:40 PM MDT
Moon 6:11 PM MDT (8/28) 3:53 AM MDT (8/28)
Length of Visible Light 14h 03m
Length of Day
13h 08m
Waxing Gibbous, 91% of the Moon is Illuminated
Aug 28
Waxing Gibbous
Aug 31
Full
Sep 8
Last Quarter
Sep 15
New
Sep 22
First Quarter

Hourly Weather History & Observations

Time (MDT) Temp. Dew Point Humidity Pressure Visibility Wind Dir Wind Speed Gust Speed Precip Events Conditions
12:52 AM 64.9 °F 39.9 °F 40% 29.99 in 10.0 mi SW 4.6 mph - N/A   Clear
1:52 AM 63.0 °F 42.1 °F 46% 29.99 in 10.0 mi South 5.8 mph - N/A   Clear
2:52 AM 62.1 °F 37.9 °F 41% 29.99 in 10.0 mi South 5.8 mph - N/A   Clear
3:52 AM 57.9 °F 45.0 °F 62% 30.00 in 10.0 mi South 4.6 mph - N/A   Clear
4:52 AM 60.1 °F 45.0 °F 57% 30.00 in 10.0 mi SSW 8.1 mph - N/A   Clear
5:52 AM 57.0 °F 44.1 °F 62% 30.01 in 10.0 mi South 4.6 mph - N/A   Clear
6:52 AM 60.1 °F 43.0 °F 53% 30.02 in 10.0 mi SSW 9.2 mph - N/A   Clear
7:52 AM 63.0 °F 41.0 °F 45% 30.03 in 10.0 mi SSW 8.1 mph - N/A   Clear
8:52 AM 70.0 °F 44.1 °F 39% 30.04 in 10.0 mi SSW 11.5 mph - N/A   Clear
9:52 AM 77.0 °F 45.0 °F 32% 30.03 in 10.0 mi SSW 10.4 mph - N/A   Clear
10:52 AM 84.0 °F 46.0 °F 26% 30.02 in 10.0 mi South 9.2 mph - N/A   Clear
11:52 AM 89.1 °F 46.0 °F 22% 30.00 in 10.0 mi SSW 10.4 mph - N/A   Clear
12:52 PM 90.0 °F 46.0 °F 22% 29.98 in 10.0 mi South 9.2 mph - N/A   Clear
1:52 PM 91.9 °F 46.0 °F 21% 29.95 in 10.0 mi SW 15.0 mph 27.6 mph N/A   Clear
2:52 PM 91.9 °F 46.0 °F 21% 29.93 in 10.0 mi SSW 15.0 mph 28.8 mph N/A   Scattered Clouds
3:52 PM 95.0 °F 45.0 °F 18% 29.91 in 10.0 mi SW 24.2 mph 28.8 mph N/A   Clear
4:52 PM 95.0 °F 44.1 °F 17% 29.88 in 10.0 mi SW 20.7 mph 28.8 mph N/A   Clear
5:52 PM 88.0 °F 48.0 °F 25% 29.90 in 10.0 mi ESE 26.5 mph 34.5 mph N/A   Scattered Clouds
6:52 PM 88.0 °F 46.9 °F 24% 29.89 in 10.0 mi SE 13.8 mph 24.2 mph N/A   Clear
7:52 PM 84.9 °F 46.9 °F 27% 29.89 in 10.0 mi South 6.9 mph - N/A   Clear
8:52 PM 81.0 °F 48.9 °F 33% 29.90 in 10.0 mi South 12.7 mph - N/A   Clear
9:52 PM 77.0 °F 50.0 °F 39% 29.91 in 10.0 mi WSW 11.5 mph - N/A   Clear
10:52 PM 73.9 °F 50.0 °F 43% 29.90 in 10.0 mi WSW 8.1 mph - N/A   Clear
11:52 PM 73.0 °F 48.9 °F 42% 29.90 in 10.0 mi WSW 11.5 mph - N/A   Clear